Weather Service Report


016 
ASUS41 KAKQ 271715
RWRAKQ

REGIONAL WEATHER ROUNDUP
NATIONAL WEATHER SERVICE WAKEFIELD VA
100 PM EDT TUE JUN 27 2017

Note: "fair" indicates few or no clouds below 12,000 feet with no
significant weather and/or obstructions to visibility. * = Denotes
station may not report precipitation (e.g., rain,snow,etc.),
thunder or fog.

VAZ042-051-052>054-056-271800-
NORTHERN VIRGINIA
  
CITY           SKY/WX    TMP DP  RH WIND       PRES   REMARKS
WASH NATIONAL  PTSUNNY   80  49  33 W8G21     30.01F                  
DULLES         PTSUNNY   75  48  38 VRB6      30.02F                  
FORT BELVOIR   PTSUNNY   78  49  36 NW10      30.01F                  
QUANTICO       PTSUNNY   79  52  38 VRB5      30.02F                  
FREDERICKSBRG* SUNNY     80  51  36 NW6       30.01S                  
STAFFORD*      PTSUNNY   78  49  34 W7        30.05F                  
WARRENTON      MOSUNNY   81  44  27 W5        30.02F                  
CULPEPER*      MOSUNNY   79  51  37 W3        30.03F                  
MANASSAS*      MOSUNNY   78  52  40 NW9       30.02F                  
LEESBURG*      MOSUNNY   79  55  44 CALM      30.03F                  
WINCHESTER     MOSUNNY   72  45  37 NW15      30.03S                  
FRONT ROYAL*   MOSUNNY   77  45  31 W7G16     30.02F                  
LURAY*         PTSUNNY   73  45  35 NW13      30.04S                  
$$

VAZ048-049-060>072-079>083-271800-
CENTRAL AND SOUTH CENTRAL VIRGINIA
  
CITY           SKY/WX    TMP DP  RH WIND       PRES   REMARKS
RICHMOND       MOSUNNY   80  51  36 VRB3      30.03F                  
CHESTERFIELD*  FAIR      80  52  37 W7        30.04F                  
PETERSBURG*    SUNNY     78  47  33 CALM      30.04S                  
HANOVER        SUNNY     79  48  33 CALM      30.04F                  
TAPPAHANNOCK*  SUNNY     79  41  26 CALM      30.03F                  
QUINTON*       FAIR      78  53  41 N7        30.02F                  
CHARLOTTSVILLE MOSUNNY   79  51  37 W9        30.04F                  
GORDONSVILLE*  SUNNY     79  50  36 SW8       30.03S                  
ORANGE*        SUNNY     77  50  38 W7G16     30.03S                  
LOUISA*        MOSUNNY   82  54  36 W9G17     30.03S                  
BUMPASS*       FAIR      78  54  43 W8        30.03F                  
FARMVILLE*     SUNNY     79  43  27 SW6       30.04S                  
CREWE*         FAIR      78  43  28 N3        30.05S                  
FORT PICKETT*  FAIR     N/A N/A N/A W7        30.05S                  
CHASE CITY*    FAIR      77  51  39 CALM      30.06F                  
CLARKSVILLE*   FAIR      79  55  44 N5        30.06S                  
SOUTH HILL*    SUNNY     78  56  46 CALM      30.11S                  
LAWRENCEVILLE* FAIR      78  53  40 N3        30.05S                  
EMPORIA*       SUNNY     79  54  41 W3        30.05S                  
$$

VAZ088>098-271800-
SOUTHEAST VIRGINIA
  
CITY           SKY/WX    TMP DP  RH WIND       PRES   REMARKS
NORFOLK        MOSUNNY   80  61  52 NE8       30.02F                  
VIRGINIA BEACH PTSUNNY   78  62  57 NE7       30.01F                  
NORFOLK NAVAL  NOT AVBL                                               
WEST POINT*    SUNNY     80  46  29 CALM      30.03F                  
SALUDA*        FAIR      78  53  41 CALM      30.02S                  
NEWPORT NEWS   MOSUNNY   80  58  46 E5        30.02F                  
LANGLEY AFB    MOSUNNY   78  59  51 NE10      30.02R                  
FORT EUSTIS    SUNNY     84  58  40 E9        30.00F                  
WILLIAMSBURG*  SUNNY     82  59  44 CALM      30.03S                  
HR EXEC AP*    FAIR      81  61  50 N5        30.00S                  
FRANKLIN*      NOT AVBL                                               
US460-WAKEFLD  SUNNY     80  55  42 VRB3      30.03S                  
$$

VAZ020-022-025-037-045-271800-
WEST CENTRAL AND SOUTHWEST VIRGINIA
  
CITY           SKY/WX    TMP DP  RH WIND       PRES   REMARKS
STAUNTON*      MOSUNNY   74  44  33 NW12      30.07S                  
WAYNESBORO*    MOSUNNY   73  47  39 W6G21     30.07S                  
HOT SPRINGS VA CLOUDY    63  34  34 W10G20    30.15S                  
LYNCHBURG      SUNNY     77  50  38 VRB3      30.07F                  
DANVILLE       MOSUNNY   77  56  48 N3        30.08F                  
SOUTH BOSTON*  FAIR      78  52  40 W6        30.07S                  
MARTINSVILLE   MOSUNNY   76  48  36 N7        30.12F                  
ROANOKE        CLOUDY    74  48  39 W13       30.10F                  
BLACKSBURG     MOSUNNY   70  47  44 NW10      30.15F                  
DUBLIN*        PTSUNNY   71  39  30 NW8G17    30.15S                  
MARION*        CLOUDY    67  45  45 NW6       30.19S                  
HILLSVILLE*    CLOUDY    67  40  36 NW5       30.15S                  
RICHLANDS*     PTSUNNY   65   4   9 W7        30.18S                  
WISE*          PTSUNNY   68  48  49 CALM      30.20S                  
ABINGDON*      PTSUNNY   70  50  48 W6        30.17S                  
$$

MDZ021>025-VAZ099-100-271800-
SOUTHERN MARYLAND AND THE DELMARVA PENINSULA
  
CITY           SKY/WX    TMP DP  RH WIND       PRES   REMARKS
PATUXENT RIVER MOSUNNY   80  53  39 N9        30.01F                  
BAY BRIDGE APT SUNNY     79  52  38 NW10G17   30.00F                  
LEONARDTOWN    SUNNY     77  52  41 W5        30.02F                  
DOVER          MOSUNNY   79  57  47 W10       29.98F                  
GEORGETOWN     SUNNY     79  52  38 N9        30.01F                  
EASTON         MOSUNNY   79  52  38 NW7       30.05F                  
CAMBRIDGE      SUNNY     77  54  44 NW9       30.01F                  
SALISBURY      SUNNY     81  53  37 N8        30.00F                  
OCEAN CITY     MOSUNNY   73  60  63 SE8       30.01F                  
WALLOPS ISLAND PTSUNNY   81  53  37 N6        30.01F                  
ACCOMACK*      MOSUNNY   80  48  32 W8        30.01F                  
$$

NCZ012>017-030>032-271800-
NORTH CENTRAL AND EASTERN NORTH CAROLINA
  
CITY           SKY/WX    TMP DP  RH WIND       PRES   REMARKS
ROANOKE RAPIDS FAIR      79  55  44 CALM      30.04S                  
RALEIGH        MOSUNNY   80  54  40 VRB6      30.07S                  
ELIZABETH CITY CLOUDY    82  60  47 NW6       30.01S                  
AHOSKIE*         N/A     78  58  49 N6        30.03F                  
EDENTON*       CLOUDY    84  64  52 CALM      30.03S                  
CURRITUCK*     CLOUDY    80  67  64 NE7       30.02S                  
KILL DEVIL HLS CLOUDY    83  55  39 CALM      30.01S                  
MANTEO         CLOUDY    81  62  50 N3        30.02S                  
CAPE HATTERAS  NOT AVBL                                               
TARBORO*       NOT AVBL                                               
GOLDSBORO      NOT AVBL                                               
WASHINGTON     SUNNY    N/A N/A N/A NW6       30.03S                  
GREENVILLE     PTSUNNY   81  59  47 N7        30.06R                  
NEW BERN       CLOUDY    85  61  44 SW6       30.03F                  
WILMINGTON     CLOUDY    86  57  37 CALM      30.03S                  
$$

VAZ048-271800-
ELSEWHERE
  
CITY           SKY/WX    TMP DP  RH WIND       PRES   REMARKS
HARRISBURG PA  MOSUNNY   73  52  47 W9G20     29.99F                  
BALTIMORE      PTSUNNY   78  50  37 W14G22    30.01S                  
ANNAPOLIS      MOSUNNY   75  53  46 W9        30.00F                  
ANDREWS AFB    MOSUNNY   77  48  35 N8        30.00F                  
PHILADELPHIA   MOSUNNY   77  54  44 SW8       29.99F                  
HENDERSON NC   SUNNY     75  54  46 CALM      30.07S                  
GREENSBORO     MOSUNNY   78  56  46 VRB6      30.09S                  
ROCKY MOUNT    MOSUNNY   81  57  43 N7        30.05S                  
$$

VAZ100-271800-
MARINE
  
STATION/POSITION TIME  TEMP    WIND        PRES    WAVE   SWELL
                       AIR SEA DIR/SP/G            HT/PER HT/PER
                 (UTC) (F)     (DEG/KT/KT) (MB)    (FT/S) (FT/S)
BRANDYWINE LGT   1648   72     310/  5/  6 1016.5F
CAPE MAY NJ      1648   73 67  290/  6/  9 1015.9S
LEWES DE         1648   72 68   10/  4/  6 1016.0F
15NM E FENWICK I 1650   69 69  280/  2/  2 1016.7F   2/ 6   2/ 6
OCEAN-CITY-INLET 1648   71 66  140/  5/  8 1016.5F
WACHAPREAGUE VA  1648   75 77  100/  5/  6 1016.0F
THOMAS POINT MD  1700   75 78  300/ 11/ 13   N/A
GOOSES REEF MD   1700   74 80  100/  4/  6 1017.1    1
COVE POINT MD    1648   73      50/  7/  9 1017.0F
SOLOMONS ISLAND  1648   75 79  320/  4/  7   N/A
BISHOPS HEAD MD  1648   75 79  280/  8/  9 1016.4F
PINEY POINT MD   1636          270/  4/  5   N/A
POTOMAC MD       1650   75      60/  6/  8 1015.7F
CAMBRIDGE MD     1648   79 81              1017.1F
LEWISETTA VA     1648   76 79  340/  3/  4 1016.4F
RAPPAHANNOCK LGT 1636          350/  8/  9 1017.1F
STINGRAY PT      1650   75      70/  6/  8 1016.6F
YORK RVR RNG VA  1648   76      60/  3/  4 1016.9F
YORKTOWN VA      1648   77 79  130/  4/  6 1016.2F
JAMESTOWN VA     1650   77     270/  4/  6   N/A
KIPTOPEKE VA     1648      75  320/  8/  9   N/A
CHES BAY BRIDGE  1648   74 74   60/  9/ 11 1016.5F
CAPE HENRY VA    1648   73      70/ 11/ 11   N/A
WILLOUBY STN VA  1648   74      50/  9/ 11 1016.6F
S CRANEY ISL VA  1648   76      40/  7/ 10 1016.4F
CAPE HENRY BUOY  1630      73                N/A     1/ 8
1ST LANDING BUOY 1700   75 74              1016.5    2/ 3
CAPE CHARLES BUO 1651      69                N/A     1/10
64NM E OF VA BCH 1650   74 75  230/  4/  4 1016.9F   1/ 8   2/ 8
DUCK PIER NC     1648   80 70  110/  6/  7 1015.9F
44100 DUCK FRF   1635      74                N/A     1/ 8
OREGON INLET NC  1636   78 78   90/  7/  9 1016.4F
HATTERAS NC      1648   81 78  310/  4/  4 1016.7F
DIAMOND SHLS NC  1650   79 81   10/  6/  8 1016.7F   2/ 7   2/ 7
CAPE LOOKOUT NC  1600   79     140/  5/  5 1016.6F
$$
  

Return to Home page


Western Regional Climate Center, wrcc@dri.edu